Regional Weather Roundup
Issued by NWS

Home | Current Version | Previous Version | Graphics & Text | Print | Product List | Glossary On
Versions: 1 2 3 4 5 6 7 8 9 10 11 12 13 14 15 16 17 18 19 20 21 22 23 24 25 26 27 28 29 30 31 32 33 34 35 36 37 38 39 40 41 42 43 44 45 46 47 48 49 50
546
ASUS44 KJAN 280610
RWRMS

MISSISSIPPI HOURLY WEATHER ROUNDUP
NATIONAL WEATHER SERVICE JACKSON MS
1200 AM CST SAT FEB 28 2015

NOTE: "FAIR: INDICATES FEW OR NO CLOUDS BELOW 12,000 FEET WITH NO
SIGNIFICANT WEATHER AND/OR OBSTRUCTIONS TO VISIBILITY.

MSZ001>002-007>008-010>013-018>021-025>028-034>036-280700-
NORTHWEST MISSISSIPPI

CITY           SKY/WX    TMP DP  RH WIND       PRES   REMARKS
CLARKSDALE     CLOUDY    30  21  69 N8        30.53F WCI  23
CLEVELAND      CLOUDY    30  26  84 N10       30.50F WCI  21
GREENWOOD        N/A    N/A N/A N/A MISG      30.49R
GREENVILLE     CLOUDY    31  24  75 NE12      30.49F WCI  22
6HR MIN TEMP:  30; 6HR MAX TEMP:  31;

OLIVE BRANCH   PTCLDY    28  16  59 NE8       30.52F WCI  20
OXFORD         FAIR      28  16  59 NE6       30.51S WCI  22
TUNICA         CLOUDY    30  21  69 NE9       30.55S WCI  22
$$

MSZ003>006-009-014>017-022>024-029>033-037>039-280700-
NORTHEAST MISSISSIPPI

CITY           SKY/WX    TMP DP  RH WIND       PRES   REMARKS
COLUMBUS AFB   CLOUDY    34  17  50 NE8       30.49F WCI  28
6HR MIN TEMP:  34; 6HR MAX TEMP:  37;

CORINTH        CLOUDY    30  14  51 NE9G15    30.53R WCI  22
GOLDN TRIANGLE CLOUDY    34  19  55 NE7       30.48F WCI  28
STARKVILLE     CLOUDY    34  23  64 NE6       30.49F WCI  29
TUPELO         CLOUDY    33  15  47 NE7       30.51S WCI  27
6HR MIN TEMP:  33; 6HR MAX TEMP:  36;

$$

MSZ040-058-280700-
CENTRAL MISSISSIPPI

CITY           SKY/WX    TMP DP  RH WIND       PRES   REMARKS
JACKSON INTL   CLOUDY    38  20  48 NE13      30.44F WCI  30
6HR MIN TEMP:  37; 6HR MAX TEMP:  42;

JACKSON HAWKNS CLOUDY    38  19  46 E10G17    30.44F WCI  31
6HR MIN TEMP:  37; 6HR MAX TEMP:  39;

MERIDIAN KEY   PTCLDY    34  20  56 NE13      30.46F WCI  25
6HR MIN TEMP:  34; 6HR MAX TEMP:  41;

MERIDIAN NAS   PTCLDY    34  19  54 NE5       30.47F WCI  30
6HR MIN TEMP:  34; 6HR MAX TEMP:  42;

VICKSBURG      CLOUDY    34  25  69 NE6       30.47F WCI  29
6HR MIN TEMP:  33; 6HR MAX TEMP:  35;

$$

MSZ059>079-280700-
SOUTH MISSISSIPPI

CITY           SKY/WX    TMP DP  RH WIND       PRES   REMARKS
BROOKHAVEN       N/A     34  30  86 N3        30.44F
HATTIESBURG    CLEAR     37  26  64 N5        30.43F WCI  33
6HR MIN TEMP:  37; 6HR MAX TEMP:  48;

MCCOMB         CLEAR     35  27  72 N6        30.42F WCI  30
6HR MIN TEMP:  35; 6HR MAX TEMP:  46;

NATCHEZ        PTCLDY    32  25  74 N5        30.44F WCI  27
6HR MIN TEMP:  30; 6HR MAX TEMP:  37;

PINE BELT      CLEAR     36  21  55 N10       30.43F WCI  28
6HR MIN TEMP:  36; 6HR MAX TEMP:  45;

$$

MSZ080>082-280700-
COASTAL MISSISSIPPI

CITY           SKY/WX    TMP DP  RH WIND       PRES   REMARKS
BILOXI         PTCLDY    42  30  62 NE10      30.38S
6HR MIN TEMP:  42; 6HR MAX TEMP:  51;

PASCAGOULA     PTCLDY    41  29  62 N7        30.39S
6HR MIN TEMP:  41; 6HR MAX TEMP:  48;

GULFPORT       CLEAR     42  27  55 NE10      30.39S
6HR MIN TEMP:  42; 6HR MAX TEMP:  51;

$$



USA.gov is the U.S. government's official web portal to all federal, state and local government web resources and services.